"startDT [UTC]","vpos","CH4 [ppm]","stdev(CH4) [ppm]","CO2 [ppm]","stdev(CO2) [ppm]","H2O [ppm]","stdev(H2O)","p_LGR [torr]","T_LGR [C]","mt1_LGR [us]","mt2_LGR [us]","T_ECpre [C]","T_EC1 [C]","T_EC2 [C]","p_inlet [hPa]","p_in [hPa]","p_out [hPa]","T_inlet [C]","RH_inlet [%]","dwpt_inlet [C]","T_vent [C]","RH_vent [%]","dwpt_vent [C]","flow_vent [l min-1]","flow_inlet [l min-1]","dwpt_sample [C]","T_room [C]"
2013-02-22 00:00:00,0.0,1.9739,0.0007,410.50,0.31,-1.0,0.0,138.15,26.42,24.62,36.29,0.04,-272.75,-272.75,-49,559,-925,20.6,1.6,-32.8,20.7,1.7,-32.3,5.73,2.38,-31.3,25.8
2013-02-22 00:01:00,0.0,1.9739,0.0008,410.46,0.28,-1.0,0.0,138.15,26.42,24.62,36.30,0.04,-272.74,-272.74,-49,559,-925,20.6,1.6,-32.8,20.7,1.7,-32.2,5.73,2.40,-31.3,25.9
2013-02-22 00:02:00,0.0,1.9745,0.0008,410.48,0.31,-0.9,1.0,138.15,26.43,24.61,36.29,0.04,-272.74,-272.74,-49,559,-925,20.6,1.6,-32.8,20.7,1.7,-32.1,5.73,2.40,-31.3,25.9
2013-02-22 00:03:00,0.0,1.9739,0.0007,410.48,0.34,-1.0,0.0,138.15,26.43,24.62,36.30,0.04,-272.74,-272.75,-49,559,-925,20.6,1.6,-32.8,20.7,1.7,-32.0,5.73,2.39,-31.3,25.9
2013-02-22 00:04:00,0.0,1.9739,0.0008,410.46,0.33,-1.0,0.0,138.15,26.44,24.62,36.30,0.04,-272.74,-272.75,-49,559,-925,20.6,1.6,-32.7,20.7,1.7,-32.1,5.73,2.36,-31.3,25.9
2013-02-22 00:05:00,0.0,1.9739,0.0009,410.54,0.30,-1.0,0.0,138.15,26.44,24.62,36.29,0.04,-272.74,-272.74,-49,559,-925,20.6,1.6,-32.7,20.7,1.7,-32.1,5.73,2.34,-31.3,25.9
2013-02-22 00:06:00,0.0,1.9741,0.0010,410.42,0.29,-1.0,0.0,138.15,26.44,24.62,36.30,0.04,-272.75,-272.75,-49,559,-925,20.6,1.6,-32.8,20.7,1.7,-32.1,5.73,2.34,-31.3,25.9
2013-02-22 00:07:00,0.0,1.9740,0.0007,410.47,0.30,-1.0,0.0,138.15,26.44,24.62,36.29,0.04,-272.75,-272.74,-48,559,-925,20.6,1.6,-32.8,20.7,1.7,-32.1,5.73,2.34,-31.3,25.9
2013-02-22 00:08:00,0.0,1.9740,0.0010,410.42,0.26,-1.0,0.0,138.15,26.45,24.61,36.30,0.04,-272.74,-272.74,-49,559,-925,20.6,1.6,-32.8,20.7,1.7,-32.3,5.73,2.36,-31.3,25.9
2013-02-22 00:09:00,0.0,1.9738,0.0008,410.55,0.29,-1.0,0.0,138.15,26.45,24.62,36.29,0.04,-272.74,-272.74,-49,559,-925,20.6,1.6,-32.8,20.7,1.7,-32.2,5.73,2.39,-31.2,25.9
2013-02-22 00:10:00,0.0,1.9739,0.0009,410.42,0.29,-1.0,0.0,138.15,26.45,24.61,36.30,0.04,-272.74,-272.75,-49,559,-925,20.6,1.6,-32.8,20.7,1.7,-32.2,5.73,2.39,-31.3,25.9
2013-02-22 00:11:00,0.0,1.9736,0.0010,410.30,0.27,-1.0,0.0,138.15,26.46,24.62,36.30,0.04,-272.74,-272.74,-49,559,-925,20.6,1.6,-32.8,20.7,1.7,-32.1,5.73,2.40,-31.3,25.9
2013-02-22 00:12:00,0.0,1.9737,0.0008,410.46,0.31,-1.0,0.0,138.15,26.46,24.62,36.30,0.04,-272.74,-272.74,-49,559,-925,20.6,1.6,-32.6,20.7,1.7,-32.1,5.73,2.39,-31.2,25.9
2013-02-22 00:13:00,0.0,1.9735,0.0010,410.39,0.26,-1.0,0.0,138.15,26.46,24.62,36.30,0.04,-272.75,-272.75,-49,559,-925,20.6,1.6,-32.6,20.7,1.7,-32.0,5.73,2.37,-31.2,25.9
2013-02-22 00:14:00,0.0,1.9733,0.0009,410.43,0.30,-1.0,0.0,138.15,26.46,24.62,36.30,0.04,-272.74,-272.75,-48,559,-925,20.6,1.6,-32.6,20.7,1.7,-31.9,5.73,2.35,-31.2,25.9
2013-02-22 00:15:00,0.0,1.9736,0.0008,410.46,0.28,-1.0,0.0,138.15,26.47,24.61,36.29,0.04,-272.74,-272.74,-49,559,-925,20.6,1.6,-32.5,20.7,1.7,-31.9,5.73,2.34,-31.2,25.9
2013-02-22 00:16:00,0.0,1.9736,0.0009,410.45,0.30,-1.0,0.0,138.15,26.47,24.62,36.29,0.04,-272.74,-272.75,-49,559,-925,20.6,1.6,-32.4,20.7,1.7,-31.9,5.73,2.35,-31.2,25.9
2013-02-22 00:17:00,0.0,1.9738,0.0009,410.42,0.29,-1.0,0.0,138.15,26.48,24.62,36.30,0.04,-272.74,-272.75,-49,559,-926,20.6,1.6,-32.5,20.7,1.7,-31.8,5.73,2.35,-31.2,25.9
2013-02-22 00:18:00,0.0,1.9742,0.0009,410.50,0.29,-1.0,0.0,138.15,26.48,24.61,36.29,0.04,-272.74,-272.74,-49,559,-925,20.6,1.6,-32.4,20.7,1.7,-31.8,5.73,2.37,-31.2,25.9
2013-02-22 00:19:00,0.0,1.9734,0.0008,410.40,0.27,-1.0,0.0,138.15,26.48,24.62,36.30,0.04,-272.74,-272.75,-48,559,-925,20.6,1.6,-32.4,20.7,1.7,-31.8,5.73,2.39,-31.2,25.9
2013-02-22 00:20:00,0.0,1.9738,0.0010,410.45,0.30,-1.0,0.0,138.15,26.48,24.62,36.30,0.04,-272.75,-272.74,-48,559,-925,20.7,1.7,-32.2,20.7,1.8,-31.7,5.73,2.40,-31.2,25.9
2013-02-22 00:21:00,0.0,1.9740,0.0008,410.36,0.26,-0.8,1.2,138.15,26.49,24.62,36.30,0.04,-272.74,-272.75,-48,559,-926,20.6,1.7,-32.3,20.7,1.7,-31.8,5.73,2.40,-31.2,25.9
2013-02-22 00:22:00,0.0,1.9744,0.0008,410.42,0.27,-1.0,0.0,138.15,26.49,24.62,36.30,0.04,-272.74,-272.74,-49,559,-925,20.6,1.7,-32.3,20.7,1.7,-31.8,5.73,2.38,-31.1,25.9
2013-02-22 00:23:00,0.0,1.9739,0.0009,410.46,0.23,-1.0,0.0,138.15,26.49,24.62,36.30,0.04,-272.75,-272.74,-49,559,-925,20.6,1.6,-32.5,20.7,1.7,-31.7,5.73,2.37,-31.1,26.0
2013-02-22 00:24:00,0.0,1.9739,0.0008,410.46,0.26,-1.0,0.0,138.15,26.50,24.62,36.30,0.04,-272.74,-272.75,-49,559,-925,20.7,1.6,-32.5,20.7,1.7,-31.9,5.73,2.35,-31.1,26.0
2013-02-22 00:25:00,0.0,1.9745,0.0010,410.44,0.31,-1.0,0.0,138.15,26.50,24.62,36.30,0.04,-272.74,-272.74,-48,559,-926,20.7,1.6,-32.6,20.7,1.7,-32.0,5.73,2.34,-31.1,26.0
2013-02-22 00:26:00,0.0,1.9746,0.0009,410.52,0.25,-1.0,0.0,138.15,26.51,24.61,36.29,0.04,-272.75,-272.75,-48,559,-926,20.7,1.6,-32.8,20.7,1.7,-32.1,5.73,2.35,-31.1,26.0
2013-02-22 00:27:00,0.0,1.9739,0.0007,410.45,0.29,-1.0,0.0,138.15,26.51,24.62,36.30,0.04,-272.75,-272.75,-48,559,-926,20.7,1.6,-32.7,20.7,1.7,-32.2,5.73,2.36,-31.1,26.0
2013-02-22 00:28:00,0.0,1.9740,0.0009,410.53,0.27,-1.0,0.0,138.15,26.52,24.62,36.29,0.04,-272.74,-272.75,-49,559,-925,20.7,1.6,-32.8,20.7,1.7,-32.2,5.73,2.37,-31.1,26.0
2013-02-22 00:29:00,0.0,1.9737,0.0009,410.44,0.29,-1.0,0.0,138.15,26.52,24.62,36.30,0.04,-272.74,-272.74,-49,559,-925,20.7,1.6,-32.9,20.7,1.7,-32.3,5.73,2.39,-31.1,26.0
2013-02-22 00:30:00,0.0,1.9738,0.0009,410.40,0.26,-1.0,0.0,138.15,26.52,24.61,36.30,0.04,-272.74,-272.75,-49,559,-926,20.7,1.6,-32.9,20.7,1.6,-32.4,5.73,2.40,-31.1,26.0
2013-02-22 00:31:00,0.0,1.9734,0.0009,410.36,0.31,-1.0,0.0,138.15,26.52,24.62,36.30,0.04,-272.74,-272.74,-49,559,-925,20.7,1.5,-33.0,20.7,1.6,-32.4,5.73,2.39,-31.1,26.0
2013-02-22 00:32:00,0.0,1.9734,0.0009,410.48,0.27,-1.0,0.0,138.15,26.53,24.62,36.29,0.04,-272.75,-272.74,-48,559,-925,20.7,1.6,-32.9,20.7,1.7,-32.3,5.73,2.38,-31.1,26.0
2013-02-22 00:33:00,0.0,1.9732,0.0009,410.43,0.29,-1.0,0.0,138.15,26.53,24.62,36.30,0.04,-272.75,-272.75,-48,559,-925,20.7,1.6,-33.0,20.7,1.7,-32.2,5.73,2.37,-31.1,26.0
2013-02-22 00:34:00,0.0,1.9730,0.0009,410.32,0.28,-1.0,0.0,138.15,26.53,24.62,36.30,0.04,-272.75,-272.75,-49,559,-926,20.7,1.6,-32.9,20.8,1.7,-32.2,5.73,2.36,-31.0,26.0
2013-02-22 00:35:00,0.0,1.9728,0.0010,410.44,0.27,-1.0,0.0,138.15,26.54,24.62,36.30,0.04,-272.74,-272.74,-49,559,-925,20.7,1.6,-32.8,20.8,1.7,-32.2,5.73,2.35,-31.1,26.0
2013-02-22 00:36:00,0.0,1.9731,0.0009,410.42,0.25,-1.0,0.0,138.15,26.54,24.62,36.29,0.04,-272.75,-272.74,-49,559,-925,20.7,1.6,-32.8,20.8,1.7,-32.2,5.73,2.35,-31.0,26.0
2013-02-22 00:37:00,0.0,1.9729,0.0009,410.37,0.25,-1.0,0.0,138.15,26.55,24.62,36.30,0.04,-272.75,-272.75,-49,559,-926,20.7,1.6,-32.8,20.8,1.7,-32.2,5.73,2.34,-31.0,26.0
2013-02-22 00:38:00,0.0,1.9730,0.0009,410.32,0.30,-1.0,0.0,138.15,26.55,24.62,36.30,0.04,-272.75,-272.75,-49,559,-926,20.7,1.6,-32.8,20.8,1.7,-32.2,5.73,2.35,-31.0,26.0
2013-02-22 00:39:00,0.0,1.9730,0.0009,410.48,0.26,-0.6,3.0,138.15,26.55,24.62,36.29,0.04,-272.74,-272.75,-49,559,-925,20.7,1.6,-32.8,20.8,1.7,-32.1,5.73,2.36,-31.0,26.0
2013-02-22 00:40:00,0.0,1.9728,0.0008,410.24,0.27,-1.0,0.0,138.15,26.56,24.62,36.31,0.04,-272.74,-272.75,-49,559,-925,20.7,1.6,-32.7,20.8,1.7,-32.0,5.73,2.38,-31.0,26.0
2013-02-22 00:41:00,0.0,1.9732,0.0009,410.34,0.31,-0.9,1.0,138.15,26.56,24.62,36.30,0.04,-272.74,-272.75,-49,559,-926,20.7,1.6,-32.6,20.8,1.7,-32.0,5.73,2.39,-31.0,26.0
2013-02-22 00:42:00,0.0,1.9730,0.0008,410.42,0.24,-1.0,0.0,138.15,26.56,24.62,36.30,0.04,-272.74,-272.75,-49,559,-926,20.7,1.6,-32.6,20.8,1.7,-31.9,5.73,2.39,-31.0,26.0
2013-02-22 00:43:00,0.0,1.9727,0.0009,410.37,0.28,-1.0,0.0,138.15,26.57,24.62,36.30,0.04,-272.75,-272.75,-49,559,-925,20.7,1.6,-32.5,20.8,1.7,-31.9,5.73,2.39,-31.0,26.0
2013-02-22 00:44:00,0.0,1.9728,0.0009,410.30,0.27,-1.0,0.0,138.15,26.57,24.62,36.31,0.04,-272.75,-272.75,-49,559,-925,20.7,1.6,-32.4,20.8,1.7,-31.8,5.73,2.38,-31.0,26.0
2013-02-22 00:45:00,0.0,1.9728,0.0010,410.39,0.27,-1.0,0.0,138.15,26.58,24.62,36.30,0.04,-272.74,-272.74,-49,559,-926,20.7,1.6,-32.4,20.8,1.8,-31.7,5.73,2.37,-30.9,26.0
2013-02-22 00:46:00,0.0,1.9726,0.0010,410.30,0.28,-1.0,0.0,138.15,26.58,24.62,36.31,0.04,-272.74,-272.74,-49,559,-926,20.7,1.7,-32.3,20.8,1.7,-31.7,5.73,2.36,-31.0,26.0
2013-02-22 00:47:00,0.0,1.9726,0.0009,410.33,0.34,-1.0,0.0,138.15,26.58,24.62,36.31,0.04,-272.75,-272.75,-49,560,-925,20.7,1.7,-32.2,20.8,1.7,-31.7,5.73,2.35,-31.0,26.1
2013-02-22 00:48:00,0.0,1.9724,0.0009,410.29,0.31,-1.0,0.0,138.15,26.59,24.62,36.31,0.04,-272.74,-272.74,-49,560,-925,20.7,1.7,-32.2,20.8,1.8,-31.7,5.73,2.34,-30.9,26.1
2013-02-22 00:49:00,0.0,1.9726,0.0008,410.29,0.26,-1.0,0.0,138.15,26.59,24.62,36.30,0.04,-272.74,-272.74,-49,559,-926,20.8,1.7,-32.2,20.8,1.7,-31.7,5.73,2.35,-30.9,26.1
2013-02-22 00:50:00,0.0,1.9728,0.0009,410.28,0.33,-1.0,0.0,138.15,26.59,24.62,36.30,0.04,-272.75,-272.75,-49,560,-926,20.8,1.7,-32.2,20.8,1.8,-31.7,5.73,2.36,-30.9,26.1
2013-02-22 00:51:00,0.0,1.9732,0.0008,410.32,0.29,-1.0,0.0,138.15,26.60,24.62,36.31,0.04,-272.75,-272.74,-49,559,-926,20.8,1.6,-32.4,20.8,1.7,-31.7,5.73,2.37,-30.9,26.1
2013-02-22 00:52:00,0.0,1.9735,0.0008,410.38,0.26,-0.7,2.3,138.15,26.61,24.62,36.30,0.04,-272.74,-272.74,-49,560,-926,20.8,1.6,-32.4,20.8,1.7,-31.7,5.73,2.37,-30.9,26.1
2013-02-22 00:53:00,0.0,1.9733,0.0009,410.37,0.27,-1.0,0.0,138.15,26.61,24.62,36.30,0.04,-272.74,-272.75,-49,560,-926,20.8,1.6,-32.3,20.8,1.7,-31.7,5.73,2.39,-30.9,26.1
2013-02-22 00:54:00,0.0,1.9732,0.0010,410.27,0.29,-1.0,0.0,138.15,26.61,24.62,36.31,0.04,-272.75,-272.75,-49,560,-926,20.8,1.6,-32.6,20.9,1.7,-31.8,5.73,2.39,-30.9,26.1
2013-02-22 00:55:00,0.0,1.9730,0.0010,410.27,0.26,-1.0,0.0,138.15,26.62,24.62,36.31,0.04,-272.74,-272.75,-49,560,-926,20.8,1.6,-32.5,20.8,1.7,-31.8,5.73,2.39,-30.9,26.1
2013-02-22 00:56:00,0.0,1.9730,0.0009,410.42,0.29,-1.0,0.0,138.15,26.62,24.62,36.29,0.04,-272.74,-272.75,-49,560,-926,20.8,1.6,-32.5,20.9,1.7,-32.0,5.73,2.39,-30.9,26.1
2013-02-22 00:57:00,0.0,1.9730,0.0010,410.35,0.27,-1.0,0.0,138.15,26.63,24.62,36.30,0.04,-272.74,-272.75,-49,560,-926,20.8,1.6,-32.6,20.8,1.7,-31.9,5.73,2.38,-30.9,26.1
2013-02-22 00:58:00,0.0,1.9730,0.0011,410.34,0.32,-1.0,0.0,138.15,26.63,24.62,36.31,0.04,-272.74,-272.75,-49,560,-926,20.8,1.7,-31.8,20.8,1.8,-31.2,5.73,2.37,-30.9,26.1
2013-02-22 00:59:00,0.0,1.9733,0.0010,410.36,0.27,-1.0,0.0,138.15,26.64,24.62,36.30,0.04,-272.74,-272.74,-49,560,-926,20.8,1.7,-32.3,20.9,1.8,-31.6,5.73,2.36,-30.8,26.1
2013-02-22 01:00:00,0.0,1.9729,0.0009,410.28,0.23,-1.0,0.0,138.15,26.64,24.62,36.30,0.04,-272.75,-272.75,-49,560,-926,20.8,1.6,-32.5,20.9,1.7,-31.8,5.73,2.35,-30.8,26.1
2013-02-22 01:01:00,0.0,1.9730,0.0009,410.29,0.29,-1.0,0.0,138.15,26.65,24.62,36.31,0.04,-272.75,-272.75,-49,560,-926,20.8,1.6,-32.5,20.9,1.7,-31.8,5.73,2.35,-30.8,26.1
2013-02-22 01:02:00,0.0,1.9731,0.0008,410.39,0.29,-1.0,0.0,138.15,26.65,24.62,36.30,0.04,-272.74,-272.74,-49,560,-926,20.8,1.6,-32.5,20.9,1.7,-31.8,5.73,2.35,-30.8,26.2
2013-02-22 01:03:00,0.0,1.9725,0.0008,410.25,0.25,-1.0,0.0,138.15,26.66,24.62,36.31,0.04,-272.74,-272.74,-49,560,-926,20.8,1.6,-32.5,20.9,1.7,-31.8,5.73,2.35,-30.8,26.2
2013-02-22 01:04:00,0.0,1.9731,0.0008,410.30,0.32,-1.0,0.0,138.15,26.66,24.62,36.30,0.04,-272.75,-272.75,-49,560,-926,20.8,1.6,-32.5,20.9,1.7,-31.8,5.73,2.36,-30.8,26.2
2013-02-22 01:05:00,0.0,1.9733,0.0009,410.30,0.28,-1.0,0.0,138.14,26.67,24.62,36.31,0.04,-272.74,-272.75,-49,560,-926,20.8,1.6,-32.5,20.9,1.7,-31.8,5.73,2.37,-30.8,26.2
2013-02-22 01:06:00,0.0,1.9728,0.0009,410.29,0.31,-1.0,0.0,138.15,26.67,24.62,36.31,0.04,-272.74,-272.74,-49,560,-926,20.8,1.6,-32.5,20.9,1.7,-31.8,5.73,2.38,-30.8,26.2
2013-02-22 01:07:00,0.0,1.9732,0.0009,410.35,0.29,-0.5,4.1,138.14,26.67,24.62,36.31,0.04,-272.75,-272.75,-49,560,-926,20.8,1.6,-32.5,20.9,1.7,-31.9,5.73,2.39,-30.7,26.2
2013-02-22 01:08:00,0.0,1.9734,0.0009,410.29,0.30,-1.0,0.0,138.14,26.68,24.62,36.31,0.04,-272.75,-272.75,-49,560,-926,20.9,1.6,-32.6,20.9,1.7,-31.9,5.73,2.39,-30.7,26.2
2013-02-22 01:09:00,0.0,1.9732,0.0010,410.30,0.27,-1.0,0.0,138.14,26.68,24.62,36.31,0.04,-272.74,-272.74,-49,560,-926,20.9,1.6,-32.7,20.9,1.7,-32.1,5.73,2.39,-30.7,26.2
2013-02-22 01:10:00,0.0,1.9737,0.0008,410.32,0.32,-1.0,0.0,138.14,26.69,24.62,36.31,0.04,-272.74,-272.75,-49,560,-926,20.9,1.6,-32.7,20.9,1.7,-32.1,5.73,2.38,-30.7,26.2
2013-02-22 01:11:00,0.0,1.9736,0.0009,410.34,0.29,-1.0,0.0,138.14,26.69,24.62,36.30,0.04,-272.74,-272.75,-49,560,-926,20.9,1.6,-32.8,20.9,1.7,-32.2,5.73,2.37,-30.7,26.2
2013-02-22 01:12:00,0.0,1.9738,0.0009,410.18,0.25,-1.0,0.3,138.14,26.70,24.62,36.31,0.04,-272.74,-272.75,-49,560,-926,20.9,1.5,-33.0,20.9,1.6,-32.3,5.73,2.36,-30.7,26.2
2013-02-22 01:13:00,0.0,1.9741,0.0010,410.27,0.31,-1.0,0.0,138.14,26.70,24.62,36.31,0.04,-272.75,-272.74,-49,560,-926,20.9,1.5,-33.0,20.9,1.6,-32.3,5.73,2.36,-30.7,26.2
2013-02-22 01:14:00,0.0,1.9738,0.0008,410.22,0.24,-1.0,0.0,138.14,26.71,24.62,36.32,0.04,-272.74,-272.75,-49,560,-926,20.9,1.5,-33.1,21.0,1.6,-32.4,5.73,2.35,-30.7,26.2
2013-02-22 01:15:00,0.0,1.9735,0.0011,410.16,0.27,-1.0,0.0,138.14,26.71,24.62,36.32,0.04,-272.75,-272.75,-49,560,-926,20.9,1.5,-33.2,21.0,1.6,-32.4,5.73,2.35,-30.7,26.3
2013-02-22 01:16:00,0.0,1.9735,0.0008,410.32,0.27,-1.0,0.0,138.14,26.72,24.62,36.31,0.04,-272.74,-272.74,-49,560,-926,20.9,1.5,-33.2,21.0,1.6,-32.5,5.73,2.35,-30.6,26.3
2013-02-22 01:17:00,0.0,1.9733,0.0008,410.20,0.28,-1.0,0.0,138.14,26.72,24.62,36.31,0.04,-272.74,-272.75,-49,560,-926,20.9,1.5,-33.3,21.0,1.6,-32.6,5.73,2.36,-30.7,26.3
2013-02-22 01:18:00,0.0,1.9738,0.0008,410.21,0.29,-1.0,0.0,138.14,26.73,24.62,36.32,0.04,-272.74,-272.75,-49,560,-926,21.0,1.5,-33.4,21.0,1.6,-32.7,5.73,2.36,-30.6,26.3
2013-02-22 01:19:00,0.0,1.9737,0.0010,410.23,0.29,-1.0,0.0,138.14,26.73,24.62,36.31,0.04,-272.74,-272.74,-49,560,-926,21.0,1.4,-33.6,21.0,1.5,-32.8,5.73,2.37,-30.6,26.3
2013-02-22 01:20:00,0.0,1.9742,0.0008,410.24,0.32,-1.0,0.0,138.14,26.74,24.62,36.31,0.04,-272.74,-272.75,-49,561,-926,21.0,1.4,-33.5,21.0,1.5,-32.9,5.73,2.37,-30.6,26.3
2013-02-22 01:21:00,0.0,1.9739,0.0008,410.31,0.25,-1.0,0.0,138.14,26.75,24.62,36.31,0.04,-272.75,-272.75,-49,561,-926,21.0,1.4,-33.7,21.0,1.5,-33.0,5.73,2.38,-30.6,26.3
2013-02-22 01:22:00,0.0,1.9742,0.0011,410.27,0.33,-1.0,0.0,138.14,26.75,24.62,36.31,0.04,-272.74,-272.74,-49,561,-926,21.0,1.4,-33.7,21.0,1.5,-33.1,5.73,2.38,-30.6,26.4
2013-02-22 01:23:00,0.0,1.9745,0.0009,410.22,0.29,-1.0,0.0,138.14,26.76,24.62,36.31,0.04,-272.74,-272.74,-49,561,-926,21.0,1.4,-33.7,21.1,1.5,-33.1,5.73,2.38,-30.5,26.4
2013-02-22 01:24:00,0.0,1.9748,0.0008,410.33,0.33,-1.0,0.0,138.14,26.76,24.62,36.30,0.04,-272.74,-272.75,-49,561,-926,21.0,1.4,-33.8,21.1,1.5,-33.1,5.73,2.38,-30.5,26.4
2013-02-22 01:25:00,0.0,1.9747,0.0010,410.22,0.22,-0.5,4.0,138.14,26.77,24.62,36.31,0.04,-272.74,-272.75,-49,561,-926,21.0,1.4,-33.8,21.1,1.5,-33.1,5.73,2.38,-30.4,26.4
2013-02-22 01:26:00,0.0,1.9745,0.0008,410.23,0.30,-1.0,0.0,138.14,26.77,24.62,36.31,0.04,-272.74,-272.74,-49,561,-926,21.0,1.4,-33.9,21.1,1.5,-33.1,5.73,2.37,-30.4,26.5
2013-02-22 01:27:00,0.0,1.9743,0.0009,410.19,0.28,-0.9,1.0,138.14,26.78,24.62,36.31,0.04,-272.75,-272.75,-49,561,-926,21.1,1.4,-33.8,21.2,1.5,-33.1,5.73,2.37,-30.3,26.5
2013-02-22 01:28:00,0.0,1.9739,0.0010,410.26,0.31,-1.0,0.0,138.14,26.79,24.62,36.31,0.04,-272.75,-272.75,-49,561,-926,21.1,1.4,-33.9,21.2,1.5,-33.1,5.73,2.36,-30.3,26.5
2013-02-22 01:29:00,0.0,1.9740,0.0009,410.22,0.29,-1.0,0.0,138.14,26.80,24.62,36.31,0.04,-272.74,-272.74,-49,561,-926,21.1,1.4,-33.8,21.2,1.5,-33.2,5.73,2.36,-30.2,26.5
2013-02-22 01:30:00,0.0,1.9741,0.0010,410.19,0.31,-1.0,0.0,138.14,26.80,24.62,36.31,0.04,-272.75,-272.74,-49,561,-926,21.1,1.4,-33.9,21.2,1.5,-33.2,5.73,2.35,-30.2,26.5
2013-02-22 01:31:00,0.0,1.9742,0.0009,410.25,0.26,-1.0,0.0,138.14,26.81,24.62,36.31,0.04,-272.75,-272.74,-49,561,-926,21.1,1.4,-33.9,21.2,1.5,-33.2,5.73,2.35,-30.2,26.6
2013-02-22 01:32:00,0.0,1.9742,0.0008,410.18,0.25,-0.7,2.2,138.14,26.81,24.62,36.32,0.04,-272.74,-272.74,-49,561,-926,21.2,1.4,-33.8,21.2,1.5,-33.2,5.73,2.35,-30.2,26.6
2013-02-22 01:33:00,0.0,1.9748,0.0009,410.16,0.31,-0.8,1.8,138.14,26.82,24.62,36.31,0.04,-272.74,-272.74,-49,561,-926,21.2,1.4,-33.8,21.2,1.5,-33.2,5.73,2.35,-30.2,26.6
2013-02-22 01:34:00,0.0,1.9740,0.0009,410.15,0.25,-1.0,0.0,138.14,26.82,24.62,36.31,0.04,-272.75,-272.75,-49,561,-926,21.2,1.4,-33.8,21.2,1.5,-33.3,5.73,2.36,-30.3,26.6
2013-02-22 01:35:00,0.0,1.9747,0.0009,410.17,0.30,-0.5,2.6,138.14,26.83,24.62,36.31,0.04,-272.74,-272.74,-49,561,-926,21.2,1.4,-33.9,21.3,1.4,-33.4,5.73,2.36,-30.2,26.5
2013-02-22 01:36:00,0.0,1.9748,0.0007,410.20,0.30,-0.7,1.6,138.14,26.83,24.62,36.31,0.04,-272.74,-272.75,-49,561,-926,21.2,1.4,-33.8,21.2,1.4,-33.4,5.73,2.37,-30.3,26.6
2013-02-22 01:37:00,0.0,1.9748,0.0008,410.13,0.29,-0.7,2.3,138.14,26.83,24.62,36.31,0.04,-272.74,-272.76,-49,561,-926,21.2,1.4,-34.0,21.3,1.4,-33.4,5.73,2.36,-30.3,26.6
2013-02-22 01:38:00,0.0,1.9744,0.0009,410.18,0.33,-1.0,0.0,138.14,26.84,24.62,36.31,0.04,-272.74,-272.74,-49,561,-927,21.2,1.4,-34.0,21.2,1.4,-33.5,5.73,2.37,-30.3,26.6
2013-02-22 01:39:00,0.0,1.9750,0.0010,410.20,0.30,-0.9,1.0,138.14,26.85,24.62,36.31,0.04,-272.74,-272.74,-49,561,-926,21.2,1.3,-34.2,21.2,1.4,-33.6,5.73,2.37,-30.3,26.6
2013-02-22 01:40:00,0.0,1.9748,0.0011,410.23,0.30,-0.7,1.7,138.14,26.85,24.62,36.31,0.04,-272.75,-272.75,-49,561,-926,21.2,1.3,-34.2,21.3,1.4,-33.6,5.73,2.37,-30.3,26.6
2013-02-22 01:41:00,0.0,1.9748,0.0010,410.09,0.30,-0.4,3.1,138.14,26.86,24.62,36.32,0.04,-272.75,-272.75,-49,561,-926,21.2,1.4,-34.0,21.2,1.4,-33.5,5.73,2.37,-30.3,26.6
2013-02-22 01:42:00,0.0,1.9741,0.0009,410.20,0.26,-0.6,3.0,138.14,26.86,24.62,36.31,0.04,-272.75,-272.74,-49,561,-926,21.2,1.4,-33.9,21.2,1.4,-33.4,5.73,2.38,-30.3,26.7
2013-02-22 01:43:00,0.0,1.9743,0.0009,410.13,0.27,-0.8,1.6,138.14,26.87,24.62,36.31,0.04,-272.74,-272.74,-49,561,-926,21.2,1.4,-33.7,21.3,1.5,-33.1,5.73,2.38,-30.3,26.7
2013-02-22 01:44:00,0.0,1.9743,0.0009,410.13,0.28,-1.0,0.0,138.13,26.87,24.62,36.31,0.04,-272.75,-272.74,-49,561,-927,21.2,1.4,-33.5,21.2,1.5,-33.0,5.73,2.38,-30.3,26.7
2013-02-22 01:45:00,0.0,1.9741,0.0008,410.03,0.25,-1.0,0.0,138.14,26.88,24.62,36.32,0.04,-272.75,-272.74,-49,561,-926,21.2,1.5,-33.3,21.2,1.5,-32.9,5.73,2.38,-30.3,26.7
2013-02-22 01:46:00,0.0,1.9743,0.0009,410.00,0.29,-0.8,1.9,138.14,26.89,24.62,36.32,0.04,-272.74,-272.74,-49,561,-926,21.2,1.5,-33.3,21.2,1.6,-32.6,5.73,2.37,-30.0,26.7
2013-02-22 01:47:00,0.0,1.9737,0.0009,410.09,0.31,-0.5,4.1,138.14,26.90,24.62,36.32,0.04,-272.74,-272.74,-49,561,-926,21.2,1.5,-33.0,21.2,1.6,-32.5,5.73,2.37,-29.9,26.7
2013-02-22 01:48:00,0.0,1.9742,0.0008,410.09,0.33,-1.0,0.0,138.13,26.90,24.62,36.32,0.04,-272.75,-272.75,-49,561,-927,21.2,1.5,-32.9,21.2,1.6,-32.3,5.73,2.37,-30.0,26.7
2013-02-22 01:49:00,0.0,1.9744,0.0008,410.06,0.27,-0.5,4.1,138.13,26.91,24.62,36.32,0.04,-272.74,-272.74,-49,562,-927,21.2,1.5,-32.8,21.3,1.6,-32.2,5.73,2.37,-30.0,26.7
2013-02-22 01:50:00,0.0,1.9740,0.0008,410.11,0.27,-0.9,0.8,138.13,26.92,24.62,36.31,0.04,-272.75,-272.74,-49,562,-927,21.2,1.5,-32.7,21.3,1.6,-32.1,5.73,2.37,-30.0,26.8
2013-02-22 01:51:00,0.0,1.9739,0.0009,410.14,0.27,-1.0,0.0,138.13,26.93,24.62,36.31,0.04,-272.74,-272.75,-49,562,-926,21.2,1.5,-32.7,21.3,1.6,-32.1,5.73,2.37,-30.0,26.8
2013-02-22 01:52:00,0.0,1.9735,0.0010,410.03,0.32,-0.5,3.8,138.13,26.93,24.62,36.32,0.04,-272.74,-272.74,-49,562,-926,21.2,1.6,-32.6,21.3,1.6,-32.1,5.73,2.36,-30.0,26.8
2013-02-22 01:53:00,0.0,1.9737,0.0009,410.06,0.31,-0.5,3.1,138.13,26.94,24.62,36.32,0.04,-272.75,-272.75,-49,562,-927,21.2,1.5,-32.7,21.3,1.6,-32.0,5.73,2.37,-30.0,26.8
2013-02-22 01:54:00,0.0,1.9739,0.0008,410.06,0.29,-0.9,1.1,138.13,26.95,24.62,36.32,0.04,-272.71,-272.73,-49,562,-927,21.2,1.6,-32.6,21.3,1.7,-31.9,5.73,2.36,-30.0,26.8
2013-02-22 01:55:00,0.0,1.9731,0.0012,410.06,0.27,-0.6,2.8,138.13,26.96,24.63,36.32,0.04,-272.75,-272.74,-49,562,-926,21.2,1.6,-32.6,21.3,1.7,-31.9,5.73,2.36,-30.0,26.8
2013-02-22 01:56:00,0.0,1.9733,0.0010,410.03,0.24,-1.0,0.0,138.13,26.96,24.63,36.32,0.04,-272.74,-272.74,-49,562,-927,21.3,1.6,-32.5,21.3,1.7,-31.8,5.73,2.36,-30.0,26.8
2013-02-22 01:57:00,0.0,1.9741,0.0011,410.06,0.34,-0.0,5.2,138.13,26.97,24.62,36.32,0.04,-272.74,-272.75,-49,562,-927,21.3,1.6,-32.3,21.3,1.7,-31.7,5.73,2.36,-30.0,26.8
2013-02-22 01:58:00,0.0,1.9735,0.0009,410.02,0.29,-1.0,0.0,138.13,26.97,24.63,36.32,0.04,-272.75,-272.75,-49,562,-926,21.3,1.6,-32.3,21.3,1.7,-31.6,5.73,2.36,-30.0,26.8
2013-02-22 01:59:00,0.0,1.9741,0.0010,410.01,0.28,-0.6,2.2,138.13,26.98,24.62,36.32,0.04,-272.74,-272.74,-49,562,-927,21.3,1.6,-32.3,21.3,1.7,-31.6,5.73,2.36,-29.9,26.8
2013-02-22 02:00:00,0.0,1.9740,0.0008,410.03,0.31,-0.9,0.9,138.13,26.99,24.62,36.32,0.04,-272.75,-272.75,-49,562,-926,21.3,1.6,-32.3,21.3,1.7,-31.6,5.73,2.36,-30.0,26.8
2013-02-22 02:01:00,0.0,1.9740,0.0010,410.15,0.27,-0.9,0.5,138.13,26.99,24.63,36.32,0.04,-272.74,-272.74,-49,562,-926,21.3,1.6,-32.3,21.3,1.7,-31.6,5.73,2.36,-30.1,26.8
2013-02-22 02:02:00,0.0,1.9739,0.0009,409.94,0.27,-0.4,3.4,138.13,27.00,24.62,36.33,0.04,-272.74,-272.74,-49,562,-926,21.3,1.6,-32.2,21.4,1.7,-31.6,5.73,2.36,-29.8,26.8
2013-02-22 02:03:00,0.0,1.9743,0.0009,410.00,0.32,-0.8,1.1,138.13,27.01,24.62,36.32,0.04,-272.74,-272.74,-49,562,-927,21.3,1.6,-32.2,21.4,1.7,-31.7,5.73,2.36,-30.0,26.8
2013-02-22 02:04:00,0.0,1.9738,0.0007,410.01,0.32,-0.8,1.2,138.13,27.02,24.63,36.32,0.04,-272.74,-272.75,-49,562,-927,21.3,1.6,-32.2,21.4,1.7,-31.5,5.73,2.35,-30.0,26.8
2013-02-22 02:05:00,0.0,1.9743,0.0010,410.02,0.27,0.1,4.9,138.13,27.02,24.63,36.32,0.04,-272.75,-272.75,-49,562,-927,21.3,1.6,-32.3,21.4,1.7,-31.6,5.73,2.36,-30.0,26.8
2013-02-22 02:06:00,0.0,1.9741,0.0009,409.99,0.34,-0.4,3.0,138.13,27.03,24.63,36.32,0.04,-272.74,-272.75,-49,562,-927,21.3,1.6,-32.2,21.4,1.7,-31.7,5.73,2.36,-30.0,26.8
2013-02-22 02:07:00,0.0,1.9743,0.0010,409.88,0.26,-0.7,1.9,138.13,27.04,24.62,36.32,0.04,-272.74,-272.74,-49,562,-927,21.3,1.6,-32.3,21.4,1.7,-31.7,5.73,2.36,-30.0,26.8
2013-02-22 02:08:00,0.0,1.9737,0.0008,409.96,0.30,-0.8,1.6,138.13,27.04,24.63,36.33,0.04,-272.75,-272.75,-49,562,-927,21.3,1.6,-32.4,21.4,1.7,-31.7,5.73,2.36,-30.0,26.8
2013-02-22 02:09:00,0.0,1.9736,0.0009,409.99,0.31,-1.0,0.0,138.13,27.05,24.63,36.32,0.04,-272.75,-272.75,-49,562,-927,21.4,1.6,-32.4,21.4,1.7,-31.7,5.73,2.36,-29.9,26.8
2013-02-22 02:10:00,0.0,1.9735,0.0010,409.99,0.26,-0.6,2.9,138.13,27.06,24.62,36.32,0.04,-272.74,-272.74,-49,562,-927,21.4,1.6,-32.3,21.4,1.7,-31.6,5.73,2.36,-29.9,26.8
2013-02-22 02:11:00,0.0,1.9739,0.0010,409.97,0.27,-0.7,1.5,138.13,27.07,24.62,36.32,0.04,-272.75,-272.75,-49,562,-927,21.4,1.6,-32.4,21.4,1.7,-31.6,5.73,2.37,-29.9,26.9
2013-02-22 02:12:00,0.0,1.9735,0.0008,409.92,0.28,-0.8,1.7,138.13,27.07,24.63,36.33,0.04,-272.75,-272.74,-49,562,-927,21.4,1.6,-32.3,21.4,1.7,-31.8,5.73,2.37,-29.9,26.9
2013-02-22 02:13:00,0.0,1.9735,0.0010,409.95,0.29,-0.7,2.2,138.13,27.08,24.63,36.32,0.04,-272.75,-272.74,-49,563,-927,21.4,1.6,-32.4,21.4,1.7,-31.8,5.73,2.37,-29.9,26.9
2013-02-22 02:14:00,0.0,1.9734,0.0009,409.95,0.28,-0.9,0.8,138.13,27.09,24.62,36.33,0.04,-272.74,-272.74,-49,562,-927,21.4,1.6,-32.3,21.4,1.7,-31.7,5.73,2.37,-30.0,26.9
2013-02-22 02:15:00,0.0,1.9734,0.0010,409.95,0.28,-0.8,1.9,138.13,27.09,24.62,36.33,0.04,-272.75,-272.75,-49,563,-927,21.4,1.6,-32.3,21.4,1.7,-31.6,5.73,2.37,-29.9,26.9
2013-02-22 02:16:00,0.0,1.9731,0.0010,409.88,0.27,-0.5,3.6,138.13,27.10,24.63,36.33,0.04,-272.74,-272.74,-49,562,-927,21.4,1.6,-32.2,21.4,1.7,-31.6,5.73,2.37,-29.9,26.9
2013-02-22 02:17:00,0.0,1.9731,0.0010,409.89,0.29,0.7,7.5,138.13,27.11,24.63,36.33,0.04,-272.74,-272.75,-49,563,-927,21.4,1.6,-32.2,21.5,1.7,-31.5,5.73,2.37,-29.9,26.9
2013-02-22 02:18:00,0.0,1.9734,0.0008,409.98,0.30,0.3,5.3,138.13,27.12,24.63,36.33,0.04,-272.75,-272.75,-49,563,-927,21.4,1.6,-32.2,21.5,1.7,-31.4,5.73,2.37,-29.9,26.9